Homer, AK

6:59 PM AKST on February 20, 2018 (GMT -0900)
Homer

Weather History for PAHO - November, 2012

Change the Weather History Date:

Tuesday, November 27, 2012

  Actual Average Record
Temperature  
Mean Temperature 22 °F -  
Max Temperature 28 °F 34 °F 50 °F (1956)
Min Temperature 16 °F 22 °F -5 °F (1948)
Degree Days  
Heating Degree Days 43    
Moisture  
Dew Point 13 °F    
Average Humidity 72    
Maximum Humidity 88    
Minimum Humidity 44    
Precipitation  
Precipitation 0.00 in - - ()
Sea Level Pressure  
Sea Level Pressure 30.02 in    
Wind  
Wind Speed 3 mph (NE)    
Max Wind Speed 13 mph    
Max Gust Speed -    
Visibility 10 miles    
Events      
Averages and records for this station are not official NWS values.
T = Trace of Precipitation, MM = Missing Value Source: NWS Daily Summary

Daily Weather History Graph

Daily Weather History Graph

Search for Another Location

Airport or City:

Trip Planner

Search our weather history database for the weather conditions in past years. The results will help you decide how hot, cold, wet, or windy it might be!

Date:

Astronomy

Nov. 27, 2012 Rise Set
Actual Time 9:31 AM AKST 4:15 PM AKST
Civil Twilight 8:39 AM AKST 5:08 PM AKST
Nautical Twilight 7:45 AM AKST 6:01 PM AKST
Astronomical Twilight 6:55 AM AKST 6:51 PM AKST
Moon 3:57 PM AKST (11/27) 8:40 AM AKST (11/27)
Length of Visible Light 8h 29m
Length of Day
6h 44m
Full, 100% of the Moon is Illuminated
Nov 27
Full
Nov 28
Full
Dec 6
Last Quarter
Dec 12
New
Dec 19
First Quarter

Hourly Weather History & Observations

Time (AKST) Temp. Windchill Dew Point Humidity Pressure Visibility Wind Dir Wind Speed Gust Speed Precip Events Conditions
12:53 AM 16.0 °F 10.4 °F 12.0 °F 84% 30.14 in 10.0 mi NNE 3.5 mph - N/A   Clear
1:53 AM 16.0 °F - 12.0 °F 84% 30.12 in 10.0 mi Calm Calm - N/A   Clear
2:53 AM 16.0 °F 10.4 °F 12.9 °F 88% 30.10 in 10.0 mi NE 3.5 mph - N/A   Clear
3:53 AM 16.0 °F 10.4 °F 12.9 °F 88% 30.09 in 10.0 mi NNE 3.5 mph - N/A   Clear
4:53 AM 18.0 °F 12.7 °F 12.9 °F 81% 30.07 in 10.0 mi NNE 3.5 mph - N/A   Partly Cloudy
5:53 AM 19.0 °F - 15.1 °F 85% 30.06 in 10.0 mi Calm Calm - N/A   Scattered Clouds
6:53 AM 19.0 °F - 15.1 °F 85% 30.04 in 10.0 mi Calm Calm - N/A   Scattered Clouds
7:53 AM 18.0 °F - 15.1 °F 88% 30.03 in 10.0 mi Calm Calm - N/A   Partly Cloudy
8:53 AM 18.0 °F - 15.1 °F 88% 30.03 in 10.0 mi Calm Calm - N/A   Clear
9:53 AM 25.0 °F - 21.0 °F 85% 30.04 in 10.0 mi Calm Calm - 0.00 in   Clear
10:53 AM 21.0 °F - 18.0 °F 88% 30.04 in 10.0 mi Calm Calm - N/A   Clear
11:53 AM 25.0 °F 19.3 °F 19.9 °F 81% 30.04 in 10.0 mi NE 4.6 mph - N/A   Clear
12:53 PM 28.9 °F - 21.9 °F 75% 30.02 in 10.0 mi Calm Calm - N/A   Clear
1:53 PM 25.0 °F 18.1 °F 19.0 °F 78% 30.01 in 10.0 mi NE 5.8 mph - 0.00 in   Clear
2:53 PM 25.0 °F - 19.0 °F 78% 29.99 in 10.0 mi Calm Calm - N/A   Clear
3:53 PM 23.0 °F 13.1 °F 16.0 °F 74% 29.97 in 10.0 mi NE 9.2 mph - N/A   Clear
4:53 PM 25.0 °F 14.8 °F 12.0 °F 58% 29.96 in 10.0 mi NE 10.4 mph - N/A   Clear
5:53 PM 26.1 °F 15.0 °F 9.0 °F 49% 29.96 in 10.0 mi NE 12.7 mph - N/A   Clear
6:53 PM 21.9 °F 14.5 °F 8.1 °F 55% 29.96 in 10.0 mi NNE 5.8 mph - N/A   Clear
7:53 PM 18.0 °F 9.8 °F 9.0 °F 68% 29.95 in 10.0 mi North 5.8 mph - N/A   Clear
8:53 PM 25.0 °F 17.1 °F 6.1 °F 45% 29.95 in 10.0 mi NE 6.9 mph - N/A   Clear
9:53 PM 25.0 °F 18.1 °F 7.0 °F 46% 29.95 in 10.0 mi NE 5.8 mph - N/A   Clear
10:53 PM 24.1 °F 18.2 °F 5.0 °F 44% 29.95 in 10.0 mi ENE 4.6 mph - N/A   Clear
11:53 PM 26.1 °F 19.4 °F 7.0 °F 44% 29.95 in 10.0 mi NE 5.8 mph - N/A   Clear